sat.trackr.live / text

‹ back to catalog

APSTAR-9

NORAD 40982 · 2015-059A

PAYLOAD ACTIVE UNKNOWN

§ Identity

Operator
Country
PRC
Launch date
2015-10-16
Launch site
XICLF
Launch vehicle
Mass (kg)
RCS (m²)
88.21

Purposes: comms

External: N2YO · Heavens-Above · Gunter

§ Orbital elements

Epoch: 2026-09-13T03:46:38.765568Z

Period
1,436.11 min
Inclination
0.0357°
Eccentricity
0.0002468
Mean motion
1.00270999 rev/d
Perigee alt
35,776.4 km
Apogee alt
35,797.2 km
Semi-major
42,165.0 km
B*
0.0000e+0
RAAN
25.5727°
Arg perigee
152.5949°
Mean anomaly
12.6671°
Rev number
3,999

§ Raw data

APSTAR-91 40982U 15059A   26256.15739312 -.00000278  00000+0  00000+0 0  99912 40982   0.0357  25.5727 0002468 152.5949  12.6671  1.00270999 39993

JSON: /api/v1/satellites/40982 · /tle

For live sub-satellite position, see the globe view (requires WebGL).

§ Visibility from observer

Set your observer location to see the next 7 days of passes ≥ 10°. The values pass through the URL so the page stays shareable.

No JS? Fill the form by hand. The geolocation button needs JavaScript.